Location: Cruquius
(52.3348°N, 4.6319°E)
Time: 08:29:03
(UTC+00:00)

Spot 2 Rocket - Pass Details

Date: 12 May 2021
Orbit: 758 x 771 km, 98.5° (Epoch: 20 June)

Event Time Altitude Azimuth Distance (km) Brightness Sun altitude
Exits shadow 21:24:51 11° 189° (S) 2,209 5.4 -13.6°
Maximum altitude 21:29:28 45° 261° (W) 1,026 4.3 -14.0°
Drops below altitude 10° 21:34:20 10° 335° (NNW) 2,301 7.4 -14.4°
Sets 21:36:44 0° 341° (NNW) 3,231 8.5 -14.6°
